Beaver Bay, MN

5:22 AM CDT on September 26, 2016 (GMT -0500)
Silver Bay Municipal

Weather History for KBFW - August, 2013

Change the Weather History Date:

Wednesday, August 28, 2013

  Actual Average Record
Temperature  
Mean Temperature 68 °F -  
Max Temperature 80 °F 70 °F 82 °F (2010)
Min Temperature 55 °F 47 °F 37 °F (1996)
Cooling Degree Days 2    
Growing Degree Days 18 (Base 50)    
Moisture  
Dew Point 60 °F    
Average Humidity 74    
Maximum Humidity 94    
Minimum Humidity 42    
Precipitation  
Precipitation 0.00 in - - ()
Sea Level Pressure  
Sea Level Pressure 30.01 in    
Wind  
Wind Speed 0 mph (North)    
Max Wind Speed 6 mph    
Max Gust Speed -    
Visibility 9 miles    
Events      
Averages and records for this station are not official NWS values.
T = Trace of Precipitation, MM = Missing Value Source: NWS Daily Summary

Daily Weather History Graph

Daily Weather History Graph

Search for Another Location

Airport or City:

Trip Planner

Search our weather history database for the weather conditions in past years. The results will help you decide how hot, cold, wet, or windy it might be!

Date:

Astronomy

Aug. 28, 2013 Rise Set
Actual Time 6:19 AM CDT 7:52 PM CDT
Civil Twilight 5:47 AM CDT 8:24 PM CDT
Nautical Twilight 5:08 AM CDT 9:03 PM CDT
Astronomical Twilight 4:26 AM CDT 9:45 PM CDT
Moon No Moon Rise 2:42 PM CDT (8/28)
Length of Visible Light 14h 37m
Length of Day
13h 33m
Waning Gibbous, 47% of the Moon is Illuminated
Aug 28
Waning Gibbous
Sep 5
New
Sep 12
First Quarter
Sep 19
Full
Sep 26
Last Quarter

Hourly Weather History & Observations

Time (CDT) Temp. Heat Index Dew Point Humidity Pressure Visibility Wind Dir Wind Speed Gust Speed Precip Events Conditions
1:53 AM 59.0 °F - 55.4 °F 88% 29.96 in 5.0 mi Calm Calm - N/A   Clear
2:13 AM 57.2 °F - 55.4 °F 94% 29.95 in 4.0 mi Calm Calm - N/A   Clear
2:33 AM 59.0 °F - 55.4 °F 88% 29.95 in 5.0 mi Calm Calm - N/A   Clear
2:53 AM 57.2 °F - 55.4 °F 94% 29.95 in 7.0 mi Calm Calm - N/A   Clear
3:13 AM 57.2 °F - 53.6 °F 88% 29.95 in 5.0 mi Calm Calm - N/A   Clear
3:34 AM 57.2 °F - 55.4 °F 94% 29.96 in 5.0 mi Calm Calm - N/A   Clear
3:53 AM 57.2 °F - 55.4 °F 94% 29.96 in 5.0 mi Calm Calm - N/A   Clear
4:13 AM 57.2 °F - 53.6 °F 88% 29.96 in 7.0 mi Calm Calm - N/A   Clear
4:33 AM 57.2 °F - 53.6 °F 88% 29.97 in 5.0 mi Calm Calm - N/A   Clear
4:53 AM 57.2 °F - 53.6 °F 88% 29.97 in 5.0 mi Calm Calm - N/A   Clear
5:13 AM 55.4 °F - 51.8 °F 88% 29.97 in 5.0 mi Calm Calm - N/A   Clear
5:33 AM 55.4 °F - 53.6 °F 94% 29.97 in 5.0 mi Calm Calm - N/A   Clear
5:53 AM 55.4 °F - 53.6 °F 94% 29.97 in 5.0 mi Calm Calm - N/A   Clear
6:13 AM 55.4 °F - 53.6 °F 94% 29.98 in 5.0 mi Calm Calm - N/A   Clear
6:33 AM 55.4 °F - 53.6 °F 94% 29.99 in 5.0 mi Calm Calm - N/A   Clear
6:53 AM 55.4 °F - 51.8 °F 88% 29.99 in 5.0 mi Calm Calm - N/A   Clear
7:13 AM 55.4 °F - 53.6 °F 94% 30.00 in 7.0 mi Calm Calm - N/A   Clear
7:33 AM 60.8 °F - 55.4 °F 82% 30.00 in 7.0 mi Calm Calm - N/A   Clear
7:53 AM 62.6 °F - 57.2 °F 82% 30.00 in 10.0 mi Calm Calm - N/A   Clear
8:13 AM 66.2 °F - 60.8 °F 83% 30.01 in 10.0 mi Calm Calm - N/A   Clear
8:34 AM 69.8 °F - 62.6 °F 78% 30.01 in 10.0 mi Calm Calm - N/A   Clear
8:53 AM 69.8 °F - 62.6 °F 78% 30.01 in 10.0 mi Calm Calm - N/A   Clear
9:13 AM 71.6 °F - 64.4 °F 78% 30.01 in 10.0 mi Calm Calm - N/A   Clear
9:33 AM 73.4 °F - 64.4 °F 73% 30.01 in 10.0 mi Calm Calm - N/A   Clear
9:53 AM 75.2 °F - 62.6 °F 65% 30.02 in 10.0 mi Calm Calm - N/A   Clear
10:13 AM 77.0 °F - 62.6 °F 61% 30.02 in 10.0 mi Calm Calm - N/A   Clear
10:33 AM 78.8 °F - 62.6 °F 57% 30.02 in 10.0 mi Calm Calm - N/A   Clear
10:53 AM 78.8 °F - 64.4 °F 61% 30.03 in 10.0 mi Calm Calm - N/A   Clear
11:13 AM 75.2 °F - 62.6 °F 65% 30.03 in 10.0 mi Calm Calm - N/A   Clear
11:33 AM 75.2 °F - 64.4 °F 69% 30.03 in 10.0 mi Calm Calm - N/A   Clear
11:54 AM 75.2 °F - 64.4 °F 69% 30.03 in 10.0 mi Calm Calm - N/A   Clear
12:13 PM 75.2 °F - 64.4 °F 69% 30.03 in 10.0 mi Calm Calm - N/A   Clear
12:33 PM 77.0 °F - 64.4 °F 65% 30.03 in 10.0 mi Calm Calm - N/A   Clear
12:53 PM 77.0 °F - 64.4 °F 65% 30.03 in 10.0 mi Calm Calm - N/A   Clear
1:15 PM 77.0 °F - 64.4 °F 65% 30.03 in 10.0 mi Calm Calm - N/A   Clear
1:33 PM 78.8 °F - 62.6 °F 57% 30.03 in 10.0 mi SSE 5.8 mph - N/A   Clear
1:53 PM 78.8 °F - 62.6 °F 57% 30.03 in 10.0 mi Calm Calm - N/A   Clear
2:13 PM 78.8 °F - 60.8 °F 54% 30.02 in 10.0 mi South 3.5 mph - N/A   Clear
2:33 PM 80.6 °F 80.5 °F 55.4 °F 42% 30.03 in 10.0 mi Calm Calm - N/A   Clear
2:53 PM 80.6 °F 80.8 °F 57.2 °F 45% 30.02 in 10.0 mi Calm Calm - N/A   Clear
3:13 PM 80.6 °F 80.8 °F 57.2 °F 45% 30.02 in 10.0 mi Calm Calm - N/A   Clear
3:33 PM 78.8 °F - 57.2 °F 47% 30.02 in 10.0 mi SSW 3.5 mph - N/A   Clear
3:53 PM 78.8 °F - 60.8 °F 54% 30.02 in 10.0 mi Calm Calm - N/A   Clear
4:13 PM 80.6 °F 81.5 °F 60.8 °F 51% 30.02 in 10.0 mi Calm Calm - N/A   Clear
4:33 PM 80.6 °F 81.5 °F 60.8 °F 51% 30.01 in 10.0 mi Calm Calm - N/A   Clear
4:53 PM 80.6 °F 81.5 °F 60.8 °F 51% 30.01 in 10.0 mi Calm Calm - N/A   Clear
5:13 PM 80.6 °F 81.8 °F 62.6 °F 54% 30.00 in 10.0 mi Calm Calm - N/A   Clear
5:33 PM 78.8 °F - 62.6 °F 57% 30.01 in 10.0 mi Calm Calm - N/A   Clear
5:53 PM 78.8 °F - 62.6 °F 57% 30.01 in 10.0 mi Calm Calm - N/A   Clear
6:13 PM 78.8 °F - 64.4 °F 61% 30.00 in 10.0 mi Calm Calm - N/A   Clear
6:33 PM 77.0 °F - 62.6 °F 61% 30.00 in 10.0 mi Calm Calm - N/A   Clear
6:53 PM 75.2 °F - 64.4 °F 69% 30.00 in 10.0 mi Calm Calm - N/A   Clear
7:13 PM 73.4 °F - 64.4 °F 73% 30.01 in 10.0 mi Calm Calm - N/A   Clear
7:33 PM 73.4 °F - 64.4 °F 73% 30.02 in 10.0 mi Calm Calm - N/A   Clear
7:53 PM 71.6 °F - 64.4 °F 78% 30.02 in 10.0 mi Calm Calm - N/A   Clear
8:13 PM 71.6 °F - 64.4 °F 78% 30.02 in 10.0 mi Calm Calm - N/A   Clear
8:33 PM 69.8 °F - 64.4 °F 83% 30.02 in 10.0 mi Calm Calm - N/A   Clear
8:53 PM 69.8 °F - 64.4 °F 83% 30.02 in 10.0 mi Calm Calm - N/A   Clear
9:13 PM 68.0 °F - 64.4 °F 88% 30.03 in 10.0 mi Calm Calm - N/A   Clear
9:33 PM 68.0 °F - 64.4 °F 88% 30.03 in 10.0 mi Calm Calm - N/A   Clear
9:53 PM 66.2 °F - 62.6 °F 88% 30.02 in 10.0 mi Calm Calm - N/A   Clear
10:13 PM 66.2 °F - 62.6 °F 88% 30.03 in 10.0 mi Calm Calm - N/A   Clear
10:33 PM 66.2 °F - 62.6 °F 88% 30.04 in 7.0 mi Calm Calm - N/A   Clear
10:53 PM 66.2 °F - 62.6 °F 88% 30.05 in 7.0 mi Calm Calm - N/A   Scattered Clouds
11:13 PM 66.2 °F - 62.6 °F 88% 30.04 in 10.0 mi Calm Calm - N/A   Scattered Clouds
11:33 PM 66.2 °F - 60.8 °F 83% 30.04 in 10.0 mi Calm Calm - N/A   Clear
11:53 PM 66.2 °F - 62.6 °F 88% 30.03 in 10.0 mi Calm Calm - N/A   Clear